Regional Weather Roundup
Issued by NWS State College, PA

Home | Current Version | Previous Version | Graphics & Text | Print | Product List | Glossary On
Versions: 1 2 3 4 5 6 7 8 9 10 11 12 13 14 15 16 17 18 19 20 21 22 23 24 25 26 27 28 29 30 31 32 33 34 35 36 37 38 39 40 41 42 43 44 45 46 47 48 49 50
000
ASUS41 KCTP 020910
RWRCTP

REGIONAL WEATHER ROUNDUP
NATIONAL WEATHER SERVICE STATE COLLEGE PA
400 AM EST MON MAR 02 2015

Note: "fair" indicates few or no clouds below 12,000 feet with no
significant weather and/or obstructions to visibility.

* = STATION THAT DOES NOT REPORT PRECIPITATION /E.G. RAIN...SNOW...ETC/
    THUNDER OR FOG.

PAZ002>004-007>009-013>016-020>023-029>032-021000-
WESTERN PENNSYLVANIA

CITY           SKY/WX    TMP DP  RH WIND       PRES   REMARKS
ERIE           LGT SNOW  19  15  84 W10G18    30.21S FOG     WCI   7
MEADVILLE      LGT SNOW  20  16  84 W9        30.16R WCI   9
FRANKLIN*      CLOUDY    19  16  86 NW6G21    30.17R WCI  11
NEW CASTLE     CLOUDY    22  19  88 W7        30.23R WCI  14
BEAVER COUNTY  NOT AVBL
BUTLER*        CLOUDY    25  21  86 W10G18    30.19R WCI  15
PITTSBURGH INT FLURRIES  27  23  85 NW17      30.19R WCI  14
PITTSBURGH     CLOUDY    28  21  75 NW12G20   30.16R
INDIANA*       CLOUDY    30  28  93 W14G21    30.14S
LATROBE        LGT RAIN  32  32 100 W12       30.16R
WASHINGTON CO* CLOUDY    30  25  80 W10       30.20R
$$

PAZ004>006-010>012-017>019-024>028-033>037-041-042-045-046-049>053-021000-
CENTRAL PENNSYLVANIA

CITY           SKY/WX    TMP DP  RH WIND       PRES   REMARKS
BRADFORD       LGT SNOW  20  16  84 W13       30.04R FOG     WCI   7
DUBOIS         CLOUDY    25  21  85 W17G25    30.08R WCI  12
CLEARFIELD     MIX PCPN  29  24  82 W13G23    30.06R
JOHNSTOWN      MIX PCPN  29  28  96 W8G20     30.04S VSB 1/4
ALTOONA        CLOUDY    35  28  75 NW10      30.04F
STATE COLLEGE  CLOUDY    33  29  85 W16G22    30.04S
WILLIAMSPORT   CLOUDY    25  22  88 CALM      30.07F FOG
SELINSGROVE    CLOUDY    27  24  89 CALM      30.07F FOG
FT INDIANTOWN  CLOUDY    25  23  93 CALM      30.07F FOG
CAPITAL CITY   CLOUDY    27  25  92 CALM      30.07F FOG
HARRISBURG     CLOUDY    27  25  92 CALM      30.07F FOG
YORK           CLOUDY    30  28  92 CALM      30.06F FOG
$$

PAZ038>040-043-044-047-048-054-055-060>062-067>071-021000-
EASTERN PENNSYLVANIA

CITY           SKY/WX    TMP DP  RH WIND       PRES   REMARKS
SCRANTON       LGT SNOW  26  22  84 SW5       30.01F
MOUNT POCONO   CLOUDY    28  25  88 W13       29.94F FOG
ALLENTOWN      CLOUDY    26  22  84 SW6       30.07F FOG
QUAKERTOWN*    CLOUDY    27  27 100 CALM      30.06F
READING        CLOUDY    26  23  88 CALM      30.07F FOG
LANCASTER      CLOUDY    29  27  92 NW6       30.07F FOG
COATESVILLE    CLOUDY    32  32 100 NW7       30.06F FOG
POTTSTOWN      CLOUDY    27  27 100 NW3       30.08F FOG
BLUE BELL      CLOUDY    32  32 100 NW3       30.06F
DOYLESTOWN     CLOUDY    27  27 100 W3        30.05F
WILLOW GROVE   NOT AVBL
NORTH PHILA    CLOUDY    33  29  85 CALM      30.09F FOG
PHILADELPHIA   CLOUDY    32  30  92 SW5       30.09F FOG
$$


USA.gov is the U.S. government's official web portal to all federal, state and local government web resources and services.